FALCON 9 DEB (47680 NORAD) Tracking and Keplerian Element Data
This shows tracking and keplerian element data for the satellite.
Feedback or suggestion? Click here.
Element | Value |
Catalog | 47680 |
Name | FALCON 9 DEB |
Epoch Orbit | 191 |
Epoch Day | 57.13674649 |
Epoch Year | 2021 |
RAAN | 51.5973 |
Inclination | 53.0502 |
Eccentricity | 0.0021688 |
Argument of Perigee | 257.3816 |
Mean Anonmoly | 102.4791 |
Mean Motion | 16.06643393 |
Decay Rate | 0.00390149 |
L1 | 1 47680U 21012BN 21057.13674649 .00390149 82759-4 48646-3 0 9998 |
L2 | 2 47680 53.0502 51.5973 0021688 257.3816 102.4791 16.06643393 1915 |
Live tracking and technical data element details for FALCON 9 DEB (NORAD 47680). FALCON 9 DEB can be tracked NOW for your location showing map with azimuth and elevation plus other details from your city location.
Track the satellite on the map from your city or location and see movement details for azimuth, elevation, latitude, longitude, range, height, and movement on the map or in text.
IsCatalogInMostPopularTable: catalog: 47680, numindb: 1
Update: records affected: 1
GetName: 47680 FALCON 9 DEB
Hit Count: updated at: Fri, 26 Feb 2021 09:15:26 GMT